Location: �perlecques
(50.8057°N, 2.1521°E)
Time: 20:59:25
(UTC+00:00)

Tiros 1 - Pass Details

Date: 04 August 2021
Orbit: 630 x 663 km, 48.4° (Epoch: 28 September)

Event Time Altitude Azimuth Distance (km) Brightness Sun altitude
Rises 19:19:39 0° 263° (W) 2,984 11.7 0.8°
Reaches altitude 10° 19:22:01 10° 261° (W) 2,068 10.8 0.5°
Maximum altitude 19:26:45 67° 180° (S) 709 7.3 -0.2°
Drops below altitude 10° 19:31:27 10° 98° (E) 2,048 9.1 -0.8°
Sets 19:33:47 0° 96° (E) 2,952 9.9 -1.1°
